Volver al catálogo

CZ-6A DEB

ActivoPO
NORAD 61351·DEBRIS·🇨🇳 China

Lanzado Aug 6, 2024 desde Taiyuan Satellite Launch Center

Loading…

Próximos Pases (próximas 24 horas)

TLE

ActualizadoSource: Space-Track

Época: Sep 14, 2026, 00:05 UTC

1 61351U 24140VQ  26257.00388162  .00003470  00000-0  74424-3 0  9995
2 61351  89.0572 265.9369 0112086 352.3663   7.5834 14.54581362107492

Sigue CZ-6A DEB en tiempo real con AllMySat

Download on the App Store